Overview Statistics Trail Chart Weather Telemetry Raw packets
 

This is the latest recevied weather packets stored in our database for station/object KI4NG. If no packets are shown the sender has not sent any weather packets the latest 10 day(s).

<< 73 74 75 76 77 78 79 >>
Time Temp. Humidity Pressure Rain* Wind** Luminosity Snow
1788095384 22.78° C 93% 1024 hPa 0 mm - 72 W/m² -
1788095080 22.78° C 94% 1024 hPa 0 mm - 175 W/m² -
1788094778 22.22° C 95% 1024 hPa 0 mm - 67 W/m² -
1788094474 22.22° C 96% 1024 hPa 0 mm - 65 W/m² -
1788094172 21.67° C 96% 1024 hPa 0 mm - 63 W/m² -
1788093868 21.67° C 97% 1024 hPa 0 mm - 100 W/m² -
1788093564 21.11° C 98% 1024 hPa 0 mm - 58 W/m² -
1788093261 20.56° C 99% 1024 hPa 0 mm - 56 W/m² -
1788092958 20.56° C 99% 1023.8 hPa 0 mm - 65 W/m² -
1788092653 20° C 99% 1023.8 hPa 0 mm - 51 W/m² -
1788092353 20° C 99% 1023.7 hPa 0 mm - 47 W/m² -
1788092048 20° C 99% 1023.6 hPa 0 mm - 44 W/m² -
1788091743 20° C 99% 1023.5 hPa 0 mm - 40 W/m² -
1788091438 20° C 99% 1023.5 hPa 0 mm - 37 W/m² -
1788091134 19.44° C 99% 1023.3 hPa 0 mm - 35 W/m² -
1788090830 19.44° C 99% 1023.2 hPa 0 mm - 32 W/m² -
1788090526 19.44° C 99% 1023.3 hPa 0 mm - 28 W/m² -
1788090222 19.44° C 99% 1023.7 hPa 0 mm - 24 W/m² -
1788089917 19.44° C 99% 1023.3 hPa 0 mm - 20 W/m² -
1788089611 19.44° C 99% 1023.3 hPa 0 mm - 16 W/m² -
1788089307 19.44° C 99% 1023.3 hPa 0 mm - 14 W/m² -
1788089003 19.44° C 99% 1023 hPa 0 mm - 10 W/m² -
1788088699 19.44° C 99% 1023.2 hPa 0 mm - 6 W/m² -
1788088395 19.44° C 99% 1023.2 hPa 0 mm - 3 W/m² -
1788088094 18.89° C 99% 1023.2 hPa 0 mm - 2 W/m² -

* Rain latest hour (hover to see other rain measurements)
** Current wind speed in m/s (hover to see current wind gust speed)